Regional Weather Roundup
Issued by NWS

Home | Current Version | Previous Version | Text Only | Print | Product List | Glossary On
Versions: 1 2 3 4 5 6 7 8 9 10 11 12 13 14 15 16 17 18 19 20 21 22 23 24 25 26 27 28 29 30 31 32 33 34 35 36 37 38 39 40 41 42 43 44 45 46 47 48 49 50
000
ASUS43 KDTX 311110
RWRMI
MICHIGAN HOURLY REGIONAL WEATHER ROUNDUP
NATIONAL WEATHER SERVICE DETROIT/PONTIAC MI
700 AM EDT TUE MAR 31 2015

NOTE: "FAIR" INDICATES FEW OR NO CLOUDS BELOW 12,000 FEET WITH NO
SIGNIFICANT WEATHER AND/OR OBSTRUCTION TO VISIBILITY.

MIZ047>049-052>055-059>063-066>070-074>076-081>083-311200-
SOUTHEAST LOWER MICHIGAN

CITY           SKY/WX    TMP DP  RH WIND       PRES   REMARKS
ADRIAN         MOCLDY    39  38  96 E5        29.69F FOG
ALMA           LGT SNOW  33  33 100 N8        29.78S
ANN ARBOR      LGT RAIN  35  34  96 NE8       29.70F
BAD AXE        CLOUDY    32  30  93 S7        29.80F
DETROIT CITY   LGT RAIN  35  31  85 E15       29.73F
DETROIT        LGT RAIN  37  34  89 E9G22     29.72F
FLINT          CLOUDY    35  31  85 NE9       29.76S
GROSSE ILE     LGT RAIN  36  34  93 E8        29.71F
HILLSDALE      CLOUDY    40  40 100 SE5       29.66F FOG
HOWELL         CLOUDY    35  34  98 E7        29.70S

CITY           SKY/WX    TMP DP  RH WIND       PRES   REMARKS
JACKSON        CLOUDY    38  37  97 E6        29.68R FOG
LAMBERTVILLE   CLOUDY    41  37  87 E6        29.69F
LANSING        CLOUDY    36  34  92 NE9       29.74R
LAPEER         NOT AVBL
MASON          CLOUDY    35  33  94 NE5       29.70R FOG
MONROE         HVY RAIN  37  36  93 E5        29.68F
MT. CLEMENS    FRZ RAIN  32  32 100 E14       29.71F FOG
PONTIAC        LGT SNOW  32  32 100 E9        29.72F FOG
PORT HOPE        N/A     31  26  82 CALM      29.79F
PORT HURON     LGT SNOW  32  30  93 E5        29.78F
TRI CITIES     SNOW      34  31  88 E10       29.80S VSB 1/2
YPSILANTI      LGT RAIN  38  33  82 E10       29.70F
$$
MIZ043>046-050>051-056>058-064>065-071>073-077>080-311200-
SOUTHWEST LOWER MICHIGAN

CITY           SKY/WX    TMP DP  RH WIND       PRES   REMARKS
BATTLE CREEK   PTCLDY    39  37  92 N7        29.69R FOG
BENTON HARBOR  CLEAR     38  33  82 CALM      29.71R
BIG RAPIDS     CLOUDY    33  32  97 CALM      29.77S
COLDWATER      CLOUDY    42  35  75 SW3       29.66R
HOLLAND        CLOUDY    41  37  86 NE12      29.73R
GRAND RAPIDS   LGT RAIN  37  35  92 NE10      29.73S
KALAMAZOO      PTCLDY    40  37  89 N6        29.68
MARSHALL       MOCLDY    38  37  96 CALM      29.67R
MUSKEGON       CLOUDY    38  34  85 NE10      29.77R
$$
MIZ016>042-311200-
NORTHERN LOWER MICHIGAN

CITY           SKY/WX    TMP DP  RH WIND       PRES   REMARKS
ALPENA         MOCLDY    24  22  91 CALM      29.85S
BEAVER ISLAND  CLEAR     24  21  90 E3        29.86S
BELLAIRE       CLEAR     26  24  93 CALM      29.84S
CADILLAC       CLOUDY    31  29  93 NE3       29.78R
CHARLEVOIX     CLEAR     28  23  82 E5        29.88R
FRANKFORT      MOSUNNY   35  29  79 E5        29.82S
GAYLORD        CLEAR     26  22  84 NE3       29.81R
GRAYLING       PTCLDY    24  21  86 CALM      29.81S
HARBOR SPRINGS CLEAR     25  23  91 NE3       29.85S
HOUGHTON LAKE  PTCLDY    28  25  88 NE5       29.80S
OSCODA         CLOUDY    31  27  83 N9        29.82S
PELLSTON       CLEAR     22  19  89 CALM      29.86S
TRAVERSE CITY  PTCLDY    30  26  85 CALM      29.82S
$$
MIZ007>008-015-311200-
EASTERN UPPER MICHIGAN

CITY           SKY/WX    TMP DP  RH WIND       PRES   REMARKS
KINROSS        CLEAR     18  16  93 NE3       29.86R
MACKINAC ISLAN CLEAR     22  22  99 NE7       29.85S
NEWBERRY       PTCLDY    16  16  99 CALM      29.85S
S. S. MARIE    PTCLDY    19  14  81 CALM      29.87R
$$
MIZ004>006-011>014-085-311200-
CENTRAL UPPER MICHIGAN

CITY           SKY/WX    TMP DP  RH WIND       PRES   REMARKS
MANISTIQUE     CLEAR     21  20  96 CALM      29.85S
ESCANABA       PTCLDY    25  21  86 N3        29.86S
MENOMINEE      PTCLDY    30  25  80 N6        29.84S
SAWYER-GWINN   CLEAR     18  16  93 CALM      29.83S
$$
MIZ001>003-009>011-084-311200-
WESTERN UPPER MICHIGAN

CITY           SKY/WX    TMP DP  RH WIND       PRES   REMARKS
IRON MOUNTAIN  PTCLDY    24  21  88 CALM      29.83S
HOUGHTON       CLOUDY    26  24  92 E5        29.81F
COPPER HARBOR    N/A     27  22  81 VRB3      29.83F
IRONWOOD       CLOUDY    28  27  93 CALM      29.81S
$$

ABBREVIATIONS USED IN REMARKS
   TC - TEMPERATURE IN CELSIUS
  WCI - WIND CHILL INDEX
   HX - HEAT INDEX
  VSB - VISIBILITY



USA.gov is the U.S. government's official web portal to all federal, state and local government web resources and services.